[[{"header":{"parameterUnit":"m.s-1","parameterCategory":1,"la1":30.2991,"la2":30.254,"lo1":-89.0895,"lo2":-89.0444,"dy":0.0017,"dx":0.0017,"nx":28,"ny":28,"refTime":"2025-05-26T21:00:00:Z","depth":0,"parameterNumber":2,"parameterNumberName":"U-component_of_WINDS"},"data":[0,0,0,0,0,0,0,0,0,0,0,0,0,0,0,0,0,0,0,0,0,0,0,0,0,0,0,0,0,0,0,0,0,0,0,0,0,0,0,0,0,0,0,0,0,0,0,0,0,0,0,0,0,0,0,0,0,0,1.2563,1.2563,0,1.258,1.2581,1.2581,1.2561,1.256,1.2559,1.2559,1.2575,1.2576,1.2578,0,0,0,0,0,0,0,0,0,0,0,0,0,1.2511,1.2512,1.2563,1.2563,1.2564,1.258,1.2581,1.2581,1.2561,1.256,1.2559,1.2558,1.2575,1.2576,1.2578,0,0,0,0,0,0,0,0,0,0,0,0,0,1.2532,1.2513,1.2563,1.2556,1.2555,1.258,1.2581,1.2581,1.2561,1.256,1.2559,1.2558,1.2575,1.2576,1.2578,1.2611,0,0,1.2583,1.2584,0,0,0,0,0,0,0,0,1.2531,1.2534,1.2557,1.2556,1.2556,1.2567,1.2568,1.2591,1.2561,1.2559,1.2559,1.2557,1.2574,1.2575,1.2581,1.2612,1.2613,1.2583,1.2584,1.2585,1.2586,0,0,0,0,0,0,0,1.2529,1.2533,1.257,1.2557,1.2556,1.2551,1.2553,1.2573,1.2572,1.2559,1.2558,1.256,1.2573,1.2579,1.2581,1.2613,1.2583,1.2585,1.2586,1.2587,1.2669,1.267,0,0,0,0,0,0,1.2529,1.2532,1.2569,1.2571,1.254,1.2553,1.2555,1.2565,1.2572,1.2572,1.2561,1.2559,1.2577,1.2579,1.2582,1.2619,1.2585,1.2587,1.2588,1.2668,1.2669,1.2671,0,0,0,0,0,0,1.2528,1.2532,1.2569,1.2551,1.2555,1.2555,1.2566,1.2566,1.2572,1.2573,1.2573,1.2567,1.2576,1.2579,1.2603,1.2619,1.2587,1.2589,1.2667,1.2668,1.267,1.2695,0,0,0,0,0,0,1.2526,1.2532,1.2545,1.2551,1.2556,1.2591,1.2567,1.2567,1.2575,1.2573,1.2579,1.258,1.2576,1.2601,1.2605,1.2621,1.259,1.2665,1.2667,1.2669,1.2693,1.2698,1.2702,0,0,0,0,0,1.2525,1.2552,1.2546,1.2551,1.2573,1.2592,1.2595,1.259,1.2576,1.2589,1.259,1.2579,1.2617,1.2604,1.2608,1.2625,1.2664,1.2667,1.2669,1.2691,1.2697,1.2702,0,0,0,0,0,0,1.2548,1.2553,1.2546,1.2577,1.2584,1.2588,1.2604,1.2596,1.2607,1.2605,1.2598,1.2599,1.2625,1.2627,1.2612,1.2656,1.2638,1.2642,1.2653,1.2659,1.2663,1.2662,1.2592,0,0,0,0,0,1.2557,1.2573,1.2576,1.2602,1.2606,1.2605,1.2613,1.2608,1.2616,1.2619,1.2621,1.2628,1.2642,1.2651,1.2663,1.2694,1.2694,1.2707,1.2712,1.2715,1.2718,1.2733,1.2738,1.2679,1.2679,1.2679,0,0,1.2576,1.258,1.259,1.2607,1.2612,1.2628,1.2608,1.2626,1.2637,1.2621,1.2644,1.2646,1.2653,1.268,1.2692,1.2683,1.2735,1.2719,1.2722,1.2722,1.2736,1.2741,1.2746,1.2681,1.2681,1.268,0,0,1.2617,1.2622,1.2644,1.2649,1.2657,1.2655,1.2661,1.2666,1.2667,1.2689,1.2677,1.269,1.2714,1.2719,1.2725,1.2766,1.2756,1.277,1.2793,1.2807,1.2811,1.2815,1.2828,1.2833,1.2773,1.2773,1.2773,0,1.2638,1.2662,1.2656,1.2674,1.2681,1.2668,1.2689,1.2694,1.2706,1.2711,1.27,1.2728,1.2733,1.276,1.2769,1.2775,1.278,1.2769,1.2811,1.2815,1.2819,1.2831,1.2836,1.2775,1.2775,1.2775,1.2774,0,1.2687,1.2703,1.272,1.273,1.2739,1.2759,1.2755,1.2765,1.2759,1.2759,1.278,1.2785,1.2797,1.2803,1.2799,1.2829,1.2823,1.2812,1.2794,1.2826,1.2837,1.2842,1.2777,1.2777,1.2776,1.2776,0,0,1.2744,1.275,1.2756,1.276,1.2767,1.2779,1.2797,1.2809,1.2817,1.2825,1.2839,1.2859,1.2848,1.2855,1.285,1.2862,1.2892,1.285,1.285,1.2856,1.2924,1.2931,1.2937,1.2886,1.2887,1.2888,1.2923,0,1.2784,1.2815,1.281,1.284,1.2854,1.2841,1.2856,1.2862,1.2861,1.2872,1.2872,1.2885,1.2871,1.2875,1.2887,1.2886,1.2906,1.2884,1.2898,1.2899,1.2895,1.2943,1.2951,1.2984,1.2928,1.2928,1.2929,0,1.2834,1.2843,1.2875,1.2878,1.2883,1.2897,1.2907,1.2918,1.2923,1.2922,1.2928,1.2921,1.2938,1.292,1.2943,1.2928,1.2933,1.2934,1.2935,1.2935,1.2915,1.2943,1.2995,1.2999,1.2936,1.2936,1.2935,0,1.287,1.2891,1.2911,1.2915,1.292,1.293,1.2932,1.2936,1.2943,1.2951,1.2955,1.2965,1.2971,1.2978,1.2973,1.2961,1.2996,1.2978,1.2994,1.2994,1.3002,1.3001,1.3053,1.3007,1.3007,1.3007,1.3007,0,1.2914,1.2934,1.2927,1.294,1.2961,1.2954,1.2975,1.2975,1.2979,1.2991,1.2981,1.2992,1.2985,1.2996,1.2992,1.301,1.3013,1.3012,1.301,1.3012,1.3012,1.3015,1.3012,1.3009,1.3008,1.3008,1.3008,0,1.2958,1.2955,1.2976,1.2978,1.2979,1.2994,1.2995,1.3007,1.3005,1.302,1.3023,1.3021,1.3032,1.3028,1.3041,1.3038,1.3061,1.3058,1.3059,1.3058,1.3073,1.3071,1.3129,1.3135,1.3086,1.3087,1.3087,0,1.2985,1.3,1.3003,1.301,1.3013,1.3025,1.3031,1.3025,1.3032,1.3038,1.3048,1.3059,1.3067,1.3086,1.3085,1.3095,1.309,1.3109,1.3091,1.3092,1.3088,1.3087,1.3088,1.3113,1.3113,1.3114,1.3114,0,1.3034,1.3031,1.3041,1.305,1.3058,1.3065,1.307,1.3077,1.3071,1.3079,1.309,1.3097,1.3109,1.3119,1.3128,1.3129,1.312,1.312,1.3124,1.3125,1.3125,1.3123,1.3067,1.3118,1.3118,1.3118,1.3117,1.3117,1.307,1.3081,1.3084,1.3095,1.3098,1.3104,1.3114,1.3113,1.3122,1.3132,1.3127,1.314,1.3144,1.3154,1.3157,1.3166,1.3159,1.3165,1.3166,1.3167,1.3169,1.3124,1.3168,1.3168,1.3168,1.3168,1.3167,0,1.3116,1.3117,1.3127,1.3135,1.3143,1.3134,1.3139,1.3147,1.3158,1.3162,1.317,1.3183,1.3192,1.3192,1.32,1.3208,1.3204,1.321,1.3209,1.3209,1.3176,1.3171,1.3213,1.3213,1.3213,1.3213,1.3213,1.3213,1.3141,1.3159,1.3157,1.3176,1.3177,1.3189,1.3193,1.3197,1.32,1.3214,1.3222,1.3222,1.3223,1.3232,1.324,1.3239,1.3242,1.325,1.3248,1.3216,1.3212,1.3207,1.3202,1.3251,1.3251,1.328,1.328,1.3281]},{"header":{"parameterUnit":"m.s-1","parameterCategory":1,"la1":30.2991,"la2":30.254,"lo1":-89.0895,"lo2":-89.0444,"dy":0.0017,"dx":0.0017,"nx":28,"ny":28,"refTime":"2025-05-26T21:00:00:Z","depth":0,"parameterNumber":3,"parameterNumberName":"V-component_of_WINDS"},"data":[0,0,0,0,0,0,0,0,0,0,0,0,0,0,0,0,0,0,0,0,0,0,0,0,0,0,0,0,0,0,0,0,0,0,0,0,0,0,0,0,0,0,0,0,0,0,0,0,0,0,0,0,0,0,0,0,0,0,3.6023,3.6024,0,3.6101,3.6102,3.6103,3.6086,3.6085,3.6083,3.6082,3.6155,3.6158,3.6162,0,0,0,0,0,0,0,0,0,0,0,0,0,3.5852,3.5855,3.6023,3.6024,3.6025,3.6101,3.6102,3.6103,3.6086,3.6084,3.6083,3.6081,3.6154,3.6158,3.6162,0,0,0,0,0,0,0,0,0,0,0,0,0,3.5928,3.5857,3.6023,3.6026,3.6027,3.6101,3.6102,3.6103,3.6087,3.6084,3.6082,3.608,3.6153,3.6157,3.6162,3.6236,0,0,3.6177,3.618,0,0,0,0,0,0,0,0,3.5923,3.5934,3.6025,3.6026,3.6027,3.6082,3.6069,3.6147,3.6087,3.6064,3.6082,3.6079,3.6132,3.6138,3.6158,3.6239,3.6242,3.6178,3.6181,3.6183,3.6184,0,0,0,0,0,0,0,3.5918,3.593,3.6054,3.6026,3.6027,3.6021,3.6029,3.6083,3.6109,3.6066,3.6065,3.6074,3.6132,3.6153,3.6159,3.6243,3.6178,3.6182,3.6185,3.6187,3.6386,3.6388,0,0,0,0,0,0,3.5913,3.5926,3.6051,3.6056,3.5969,3.6026,3.6035,3.6066,3.6108,3.6113,3.6076,3.6073,3.6146,3.6153,3.6162,3.6249,3.6183,3.6188,3.619,3.6384,3.6387,3.6389,0,0,0,0,0,0,3.5909,3.5924,3.6048,3.5991,3.6006,3.6031,3.6066,3.6069,3.609,3.6116,3.612,3.6093,3.6144,3.6155,3.6217,3.6251,3.619,3.6194,3.6381,3.6385,3.6388,3.6425,0,0,0,0,0,0,3.5904,3.5923,3.5953,3.5992,3.6009,3.6105,3.6068,3.6072,3.6099,3.6096,3.6133,3.6137,3.6143,3.621,3.6222,3.6257,3.6198,3.6378,3.6383,3.6387,3.6421,3.6429,3.6436,0,0,0,0,0,3.5898,3.5959,3.5955,3.597,3.6048,3.6107,3.6117,3.6124,3.6102,3.6131,3.6147,3.6136,3.6246,3.6217,3.623,3.6267,3.6376,3.6382,3.6387,3.6417,3.6427,3.6436,0,0,0,0,0,0,3.5922,3.5965,3.596,3.6036,3.6068,3.6104,3.6141,3.6135,3.6173,3.6169,3.6174,3.6183,3.6246,3.6263,3.623,3.6339,3.6307,3.6315,3.6326,3.6336,3.6344,3.6338,3.6202,0,0,0,0,0,3.5937,3.5983,3.6017,3.608,3.6097,3.6116,3.6142,3.6145,3.6178,3.6191,3.6213,3.6243,3.6284,3.6311,3.635,3.6423,3.6429,3.6454,3.6462,3.6469,3.6475,3.6513,3.6524,3.6407,3.6407,3.6406,0,0,3.5966,3.5995,3.6024,3.6086,3.6111,3.6157,3.6128,3.6178,3.6211,3.6198,3.6259,3.6275,3.6309,3.6377,3.6407,3.6392,3.6509,3.6475,3.648,3.6483,3.6519,3.653,3.654,3.641,3.6409,3.6409,0,0,3.6043,3.6071,3.6126,3.6152,3.6192,3.6204,3.6217,3.6254,3.6265,3.6326,3.6317,3.6355,3.6426,3.645,3.6472,3.6556,3.6546,3.6569,3.661,3.6646,3.6655,3.6663,3.6692,3.6702,3.6576,3.6576,3.6576,0,3.6074,3.6145,3.6154,3.6205,3.6232,3.6224,3.6278,3.6302,3.6351,3.6369,3.6351,3.644,3.6462,3.6534,3.6555,3.6573,3.6586,3.6565,3.6654,3.6662,3.6669,3.6696,3.6707,3.6578,3.6578,3.6578,3.6577,0,3.618,3.623,3.6269,3.6319,3.6349,3.6402,3.6416,3.6446,3.6446,3.6459,3.652,3.6546,3.659,3.6607,3.6607,3.6679,3.6668,3.6652,3.6621,3.6683,3.6708,3.6719,3.6582,3.6581,3.658,3.6579,0,0,3.6275,3.6329,3.6343,3.6365,3.6407,3.6444,3.6494,3.6539,3.6563,3.6597,3.6638,3.6697,3.6683,3.6707,3.6709,3.6742,3.6804,3.6721,3.6722,3.6735,3.6882,3.6893,3.6905,3.6798,3.68,3.6802,3.6879,0,3.6355,3.6447,3.6456,3.6537,3.6581,3.6573,3.6616,3.6646,3.6659,3.6696,3.6709,3.6751,3.673,3.6744,3.6775,3.679,3.6834,3.6785,3.6834,3.6836,3.6825,3.6919,3.6931,3.7003,3.6889,3.6891,3.6892,0,3.6461,3.6499,3.6585,3.662,3.6639,3.6678,3.6719,3.6755,3.6787,3.6794,3.6821,3.6818,3.6867,3.6834,3.69,3.6867,3.6887,3.6897,3.69,3.6904,3.6867,3.6924,3.7026,3.7036,3.6908,3.6907,3.6906,0,3.6519,3.6592,3.6653,3.6672,3.6714,3.6741,3.676,3.679,3.6815,3.685,3.6866,3.6905,3.6926,3.6956,3.6963,3.6938,3.7028,3.6996,3.7033,3.7033,3.7052,3.705,3.7157,3.7067,3.7067,3.7066,3.7066,0,3.6607,3.6659,3.6679,3.6717,3.6774,3.6782,3.6838,3.6855,3.6881,3.6919,3.6914,3.6949,3.6957,3.6993,3.6999,3.7052,3.7061,3.7067,3.7067,3.7067,3.7066,3.7079,3.7074,3.7069,3.7069,3.7068,3.7068,0,3.6682,3.6698,3.6763,3.6798,3.6808,3.6848,3.6877,3.6911,3.6923,3.6971,3.6983,3.7001,3.7043,3.7053,3.7103,3.7107,3.7169,3.7165,3.7159,3.7158,3.7194,3.719,3.7312,3.7327,3.7228,3.7229,3.723,0,3.6736,3.6776,3.6816,3.6842,3.6862,3.6904,3.6931,3.694,3.6967,3.7005,3.7034,3.7076,3.711,3.7177,3.7193,3.723,3.7226,3.7267,3.7232,3.7229,3.7225,3.7222,3.7225,3.7273,3.7274,3.7275,3.7275,0,3.683,3.6836,3.6876,3.6918,3.695,3.6983,3.7014,3.7035,3.7048,3.7078,3.7122,3.7149,3.72,3.724,3.7278,3.7293,3.7286,3.7286,3.7297,3.7296,3.729,3.7292,3.7175,3.7283,3.7283,3.7282,3.7282,3.7281,3.6896,3.693,3.6964,3.7007,3.7032,3.7061,3.7095,3.7112,3.7149,3.7193,3.7195,3.7242,3.727,3.732,3.7338,3.7373,3.736,3.7376,3.7379,3.7383,3.7385,3.7285,3.738,3.738,3.7379,3.7379,3.7379,0,3.6988,3.7009,3.7049,3.7094,3.7128,3.712,3.7154,3.7181,3.7224,3.7252,3.7285,3.7335,3.7374,3.7393,3.7431,3.7455,3.7452,3.7465,3.7462,3.7466,3.7395,3.7382,3.7466,3.7466,3.7466,3.7466,3.7466,3.7466,3.704,3.7099,3.7108,3.7177,3.7197,3.7245,3.7264,3.729,3.7313,3.7368,3.7402,3.7415,3.7438,3.7478,3.7512,3.7517,3.753,3.7544,3.7546,3.748,3.7471,3.7462,3.745,3.7547,3.7547,3.7614,3.7614,3.7615]}]]